User: anonymous   Login
Location: Newark
(42.9858°N, 0.6717°E)
Time: 21:42:30
(UTC+00:00)
Language:

Envisat - Orbit

View from above orbital plane
View from above orbital plane
View from above satellite
View from above satellite

Ground track
Ground track

The orbit data is extracted from the following two-line orbital elements,

1 27386U 02009A   19320.54725170  .00000008  00000-0  16127-4 0  9992
2 27386  98.1429 333.8073 0001305  95.4261  75.2010 14.37963013927879
Epoch (UTC): 16 November 2019 13:08:02
Eccentricity: 0.0001305
inclination: 98.1429°
perigee height: 764 km
apogee height: 766 km
right ascension of ascending node: 333.8073°
argument of perigee: 95.4261°
revolutions per day: 14.37963013
mean anomaly at epoch: 75.2010°
orbit number at epoch: 92787

The dashed part of the orbit path shows where the satellite is in the earth's shadow,  

DLR